NOAA 20 (43013 NORAD) Tracking and Keplerian Element Data

This shows tracking and keplerian element data for the satellite.

Feedback or suggestion? Click here.




ElementValue
Catalog43013
NameNOAA 20
Epoch Orbit5605
Epoch Day352.46518645
Epoch Year2018
RAAN288.2015
Inclination98.7442
Eccentricity0.0001473
Argument of Perigee85.2307
Mean Anonmoly274.9038
Mean Motion14.19534793
Decay Rate-1.3E-07
L11 43013U 17073A 18352.46518645 -.00000013 00000-0 14825-4 0 9996
L22 43013 98.7442 288.2015 0001473 85.2307 274.9038 14.19534793 56058

Live tracking and technical data element details for NOAA 20 (NORAD 43013). NOAA 20 can be tracked NOW for your location showing map with azimuth and elevation plus other details from your city location.

Track the satellite on the map from your city or location and see movement details for azimuth, elevation, latitude, longitude, range, height, and movement on the map or in text.







IsCatalogInMostPopularTable: catalog: 43013, numindb: 205
Update: records affected: 1



GetName: 43013 NOAA 20

Hit Count: updated at: Wed, 19 Dec 2018 15:13:54 GMT